GW5434 Weather Reports


Display with metric or nautical units.
time (UTC)temp
F
wind
direction
speed
MPH
gust
MPH
rain 1hr
in
rain 24hr
in
rain mn
in
humidity
%
barometer
mb
20260505003015 73 194 1.0 4.0 0.00 0.00 0.00 55 1013.8
20260505001521 76 115 2.0 4.0 0.00 0.00 0.00 49 1013.6
20260505000025 77 205 0.0 7.0 0.00 0.00 0.00 48 1013.7
20260504234509 77 136 4.0 8.0 0.00 0.00 0.00 46 1013.7
20260504233012 78 215 3.0 8.0 0.00 0.00 0.00 44 1013.8
20260504231517 79 134 2.0 6.0 0.00 0.00 0.00 43 1013.8
20260504230023 79 213 3.0 8.0 0.00 0.00 0.00 41 1013.9
20260504224524 80 141 4.0 7.0 0.00 0.00 0.00 42 1014.1
20260504223013 80 219 3.0 7.0 0.00 0.00 0.00 39 1014.3
20260504221515 80 198 2.0 8.0 0.00 0.00 0.00 39 1014.4
20260504220019 81 174 0.0 10.0 0.00 0.00 0.00 38 1014.4
20260504214525 81 229 3.0 7.0 0.00 0.00 0.00 39 1014.6
20260504213037 81 105 2.0 9.0 0.00 0.00 0.00 38 1014.6
20260504211510 80 237 6.0 14.0 0.00 0.00 0.00 36 1014.6
20260504210014 81 243 2.0 10.0 0.00 0.00 0.00 38 1014.7
20260504204534 80 271 6.0 12.0 0.00 0.00 0.00 38 1014.9
20260504203026 80 243 2.0 8.0 0.00 0.00 0.00 39 1015.1
20260504201525 81 219 4.0 11.0 0.00 0.00 0.00 38 1015.4
20260504200011 81 174 4.0 9.0 0.00 0.00 0.00 37 1015.6
20260504194518 81 256 3.0 12.0 0.00 0.00 0.00 38 1015.8
20260504193023 81 152 5.0 9.0 0.00 0.00 0.00 37 1016.0
20260504191525 80 132 2.0 9.0 0.00 0.00 0.00 39 1016.2
20260504190028 80 246 2.0 10.0 0.00 0.00 0.00 40 1016.2
20260504184514 80 131 4.0 10.0 0.00 0.00 0.00 40 1016.4
20260504183020 80 175 2.0 9.0 0.00 0.00 0.00 39 1016.5
20260504181523 80 275 3.0 10.0 0.00 0.00 0.00 38 1016.7
20260504180028 79 221 3.0 9.0 0.00 0.00 0.00 40 1016.9
20260504174525 79 231 1.0 6.0 0.00 0.00 0.00 40 1017.0
20260504173014 79 106 1.0 11.0 0.00 0.00 0.00 39 1017.2
20260504171504 77 259 4.0 7.0 0.00 0.00 0.00 41 1017.8
20260504081512 46 117 0.0 0.0 0.00 0.00 0.00 94 1018.3
20260504050008 50 117 0.0 0.0 0.00 0.00 0.00 92 1019.2
20260504044515 51 117 0.0 0.0 0.00 0.00 0.00 92 1019.3
20260504043023 51 117 0.0 1.0 0.00 0.00 0.00 91 1019.4
20260504041522 52 175 0.0 0.0 0.00 0.00 0.00 91 1019.5
20260504040024 53 96 0.0 2.0 0.00 0.00 0.00 91 1019.5
20260504034509 53 175 0.0 0.0 0.00 0.00 0.00 92 1019.4
20260504033014 53 115 0.0 2.0 0.00 0.00 0.00 90 1019.6
20260504031518 54 174 0.0 0.0 0.00 0.00 0.00 91 1019.6
20260504030025 54 83 0.0 0.0 0.00 0.00 0.00 90 1019.4
20260504024525 55 123 0.0 2.0 0.00 0.00 0.00 90 1019.3
20260504023010 55 116 0.0 1.0 0.00 0.00 0.00 88 1019.2
20260504021517 56 103 0.0 1.0 0.00 0.00 0.00 87 1019.1
20260504020020 56 83 0.0 1.0 0.00 0.00 0.00 85 1019.0
20260504014524 58 181 0.0 0.0 0.00 0.00 0.00 85 1018.8
20260504013030 59 181 0.0 0.0 0.00 0.00 0.00 83 1018.5
20260504011514 60 181 0.0 0.0 0.00 0.00 0.00 80 1018.5
20260504010015 62 279 0.0 0.0 0.00 0.00 0.00 79 1018.3
20260504004523 64 279 0.0 0.0 0.00 0.00 0.00 74 1018.3